Stations météo

Publicité
Bournemouth Airport, Grande-Bretagne (3862): Température de l'air & dewpoint: 14.10.2018 20:00:00 - 20.10.2018 20:00:00 (BST)Bournemouth Airport, Grande-Bretagne (3862): Température de l'air -20cm & Température de l'air -100cm: 14.10.2018 20:00:00 - 20.10.2018 20:00:00 (BST)Bournemouth Airport, Grande-Bretagne (3862): Vitesse du vent: 14.10.2018 20:00:00 - 20.10.2018 20:00:00 (BST)Bournemouth Airport, Grande-Bretagne (3862): Direction du vent: 14.10.2018 20:00:00 - 20.10.2018 20:00:00 (BST)Bournemouth Airport, Grande-Bretagne (3862): reduced air pressure: 14.10.2018 20:00:00 - 20.10.2018 20:00:00 (BST)Bournemouth Airport, Grande-Bretagne (3862): visibility: 14.10.2018 20:00:00 - 20.10.2018 20:00:00 (BST)Bournemouth Airport, Grande-Bretagne (3862): Ensoleillement: 14.10.2018 20:00:00 - 20.10.2018 20:00:00 (BST)Bournemouth Airport, Grande-Bretagne (3862): Quantités de précipitations: 14.10.2018 20:00:00 - 20.10.2018 20:00:00 (BST)
Date & Time tt [°C] td [°C] tt -20cm [°C] tt -100cm [°C] ff [km/h] ff [knt] dd ppp [hPa] vv [km] sd [min] rr [mm]
20.10.2018 20:00:00 9,2 8,1 - - 2 1 N 1031,0 10 0 0,0
20.10.2018 19:00:00 10,7 8,3 - - 2 1 SSE 1030,8 10 0 0,0
20.10.2018 18:00:00 14,5 9,2 - - 5 3 S 1030,8 10 36 0,0
20.10.2018 17:00:00 15,7 9,6 - - 8 4 S 1030,7 10 60 0,0
20.10.2018 16:00:00 16,2 9,4 - - 9 5 SSW 1031,1 10 60 0,0
20.10.2018 15:00:00 16,7 8,9 - - 9 5 S 1031,3 27 60 0,0
20.10.2018 14:00:00 16,6 8,9 - - 8 4 S 1031,7 10 60 0,0
20.10.2018 13:00:00 16,4 8,8 - - 4 2 - 1032,4 10 60 0,0
20.10.2018 12:00:00 15,4 10,5 - - 2 1 - 1032,9 10 60 0,0
20.10.2018 11:00:00 11,4 10,9 - - 0 0 N 1032,7 8 60 -
20.10.2018 10:00:00 7,9 7,8 12,7 13,9 2 1 SE 1032,4 7 48 0,0
20.10.2018 09:00:00 4,2 4,0 - - 0 0 N 1032,4 7 0 0,0
20.10.2018 08:00:00 2,0 1,7 - - 4 2 WNW 1031,9 7 0 0,0
20.10.2018 07:00:00 1,6 1,3 - - 4 2 NW 1031,4 12 0 0,0
20.10.2018 06:00:00 2,6 2,4 - - 2 1 NNW 1030,8 12 0 0,0
20.10.2018 05:00:00 3,2 3,0 - - 5 3 N 1030,2 13 0 0,0
20.10.2018 04:00:00 2,2 1,9 - - 5 3 NNW 1029,6 14 0 0,0
20.10.2018 03:00:00 3,2 2,9 - - 2 1 NNW 1029,7 10 0 0,0
20.10.2018 02:00:00 4,0 3,8 - - 2 1 WNW 1029,6 9 0 0,0
20.10.2018 01:00:00 3,9 3,5 - - 4 2 NNW 1029,6 17 - 0,0
20.10.2018 00:00:00 4,6 4,2 - - 5 3 N 1029,3 14 0 0,0
19.10.2018 23:00:00 5,1 4,6 - - 4 2 NNW 1029,3 10 0 0,0
19.10.2018 22:00:00 5,6 4,8 - - 2 1 N 1028,7 10 0 0,0
19.10.2018 21:00:00 6,6 5,9 - - 2 1 NW 1028,5 10 0 0,0
19.10.2018 20:00:00 8,0 6,8 - - 4 2 N 1028,3 10 0 0,0
19.10.2018 19:00:00 9,8 7,5 - - 5 3 NNW 1027,5 10 0 0,0
19.10.2018 18:00:00 14,1 8,4 - - 5 3 NNE 1026,7 27 36 0,0
19.10.2018 17:00:00 15,7 8,2 - - 5 3 N 1026,3 10 60 0,0
19.10.2018 16:00:00 16,2 8,7 - - 11 6 N 1026,3 10 60 0,0
19.10.2018 15:00:00 16,1 7,9 - - 9 5 N 1026,2 10 60 0,0
19.10.2018 14:00:00 15,6 7,9 - - 11 6 ENE 1026,3 10 60 0,0
19.10.2018 13:00:00 15,2 8,3 - - 9 5 NNE 1026,6 10 60 0,0
19.10.2018 12:00:00 14,1 8,5 - - 5 3 ENE 1026,4 10 60 0,0
19.10.2018 11:00:00 11,4 8,9 - - 4 2 N 1026,9 10 54 0,0
19.10.2018 10:00:00 9,1 8,8 13,4 14,0 8 4 N 1026,9 16 48 0,0
19.10.2018 09:00:00 5,0 5,0 - - 5 3 NNW 1026,5 10 0 0,0
19.10.2018 08:00:00 3,5 3,4 - - 8 4 NNW 1026,2 8 0 0,0
19.10.2018 07:00:00 2,8 2,6 - - 8 4 NNW 1025,6 4,3 0 0,0
19.10.2018 06:00:00 3,7 3,5 - - 5 3 NNW 1025,7 10 0 0,0
19.10.2018 05:00:00 4,0 3,9 - - 5 3 NNW 1025,8 0,4 0 0,0
19.10.2018 04:00:00 4,6 4,4 - - 8 4 NNW 1025,9 10 0 0,0
19.10.2018 03:00:00 5,4 5,2 - - 4 2 NNW 1026,0 0,1 0 0,0
19.10.2018 02:00:00 5,1 4,8 - - 4 2 NNW 1026,0 1,7 0 0,0
19.10.2018 01:00:00 6,0 5,5 - - 5 3 NNW 1026,2 0,6 - 0,0
19.10.2018 00:00:00 7,1 6,3 - - 4 2 N 1026,2 11 0 0,0
18.10.2018 23:00:00 8,5 7,3 - - 5 3 NE 1026,1 10 0 0,0
18.10.2018 22:00:00 9,4 7,7 - - 4 2 NE 1026,2 10 0 0,0
18.10.2018 21:00:00 9,7 7,6 - - 9 5 ENE 1026,1 22 0 0,0
18.10.2018 20:00:00 11,3 8,7 - - 11 6 NE 1025,9 10 0 0,0
18.10.2018 19:00:00 11,5 9,1 - - 9 5 NE 1025,7 10 0 0,0
18.10.2018 18:00:00 13,1 9,3 - - 11 6 NE 1025,4 10 36 0,0
18.10.2018 17:00:00 15,0 9,8 - - 15 8 NE 1025,2 10 60 0,0
18.10.2018 16:00:00 15,6 9,8 - - 16 9 ENE 1025,5 10 60 0,0
18.10.2018 15:00:00 15,4 9,8 - - 16 9 ENE 1025,8 24 60 0,0
18.10.2018 14:00:00 15,1 9,8 - - 21 11 NE 1026,2 10 60 0,0
18.10.2018 13:00:00 14,8 10,0 - - 21 11 NE 1026,5 24 60 0,0
18.10.2018 12:00:00 14,3 9,7 - - 22 12 ENE 1027,0 26 60 0,0
18.10.2018 11:00:00 13,2 9,8 - - 21 11 NE 1027,1 10 60 0,0
18.10.2018 10:00:00 12,1 9,8 14,0 14,0 18 10 NNE 1026,7 10 54 0,0
18.10.2018 09:00:00 10,7 9,6 - - 13 7 NNE 1026,4 10 0 0,0
18.10.2018 08:00:00 9,3 8,7 - - 11 6 NNE 1025,9 9 0 0,0
18.10.2018 07:00:00 10,0 9,1 - - 11 6 NNE 1025,5 10 0 0,0
18.10.2018 06:00:00 10,6 9,6 - - 11 6 N 1025,1 13 0 0,0
18.10.2018 05:00:00 11,9 10,5 - - 11 6 NNE 1025,1 16 0 0,0
18.10.2018 04:00:00 12,1 10,8 - - 15 8 N 1024,9 14 0 0,0
18.10.2018 03:00:00 12,2 11,1 - - 11 6 N 1024,8 15 0 0,0
18.10.2018 02:00:00 12,3 11,2 - - 11 6 NNE 1024,4 15 0 0,0
18.10.2018 01:00:00 12,9 12,0 - - 11 6 NNE 1024,3 13 - 0,0
18.10.2018 00:00:00 12,9 12,1 - - 8 4 NNE 1024,0 15 0 0,2
17.10.2018 23:00:00 13,4 12,2 - - 11 6 ENE 1023,8 10 0 0,0
17.10.2018 22:00:00 13,4 13,0 - - 8 4 NNE 1023,4 10 0 0,2
17.10.2018 21:00:00 13,2 12,9 - - 9 5 N 1022,7 8 0 0,0
17.10.2018 20:00:00 13,4 13,1 - - 5 3 NNE 1022,0 13 0 0,0
17.10.2018 19:00:00 13,6 13,3 - - 11 6 NNE 1021,2 2,1 0 0,0
17.10.2018 18:00:00 14,0 13,6 - - 4 2 ENE 1020,4 8 0 0,2
17.10.2018 17:00:00 14,1 13,4 - - 5 3 E 1020,0 16 0 0,0
17.10.2018 16:00:00 14,4 13,6 - - 2 1 ESE 1019,7 9 0 0,0
17.10.2018 15:00:00 13,9 13,5 - - 5 3 SSE 1019,6 5 0 0,4
17.10.2018 14:00:00 13,9 13,4 - - 5 3 SSW 1019,4 3,2 0 0,2
17.10.2018 13:00:00 13,7 13,2 - - 9 5 SSW 1019,4 5 0 0,2
17.10.2018 12:00:00 13,9 13,6 - - 11 6 S 1019,2 2,2 0 0,2
17.10.2018 11:00:00 13,6 13,2 - - 9 5 S 1018,9 5 0 0,2
17.10.2018 10:00:00 14,1 13,6 14,0 14,0 5 3 - 1018,7 8 0 0,0
17.10.2018 09:00:00 13,5 13,1 - - 4 2 S 1018,3 8 0 0,2
17.10.2018 08:00:00 13,2 12,7 - - 5 3 S 1017,8 4,0 0 0,6
17.10.2018 07:00:00 13,3 12,7 - - 5 3 SW 1017,6 10 0 0,0
17.10.2018 06:00:00 13,3 12,8 - - 8 4 SW 1017,3 13 0 0,2
17.10.2018 05:00:00 13,4 12,5 - - 5 3 S 1017,1 15 0 0,2
17.10.2018 04:00:00 13,3 11,3 - - 5 3 SSW 1017,0 27 0 0,0
17.10.2018 03:00:00 12,0 11,6 - - 8 4 S 1017,3 22 0 0,0
17.10.2018 02:00:00 9,2 8,5 - - 4 2 ESE 1017,5 16 0 0,0
17.10.2018 01:00:00 11,5 10,3 - - 4 2 SW 1017,7 19 - 0,0
17.10.2018 00:00:00 12,2 11,2 - - 5 3 SSW 1017,6 10 0 0,0
16.10.2018 23:00:00 13,1 12,3 - - 8 4 WSW 1017,7 10 0 0,0
16.10.2018 22:00:00 12,9 11,9 - - 8 4 WSW 1017,7 10 0 0,0
16.10.2018 21:00:00 12,9 11,6 - - 8 4 WSW 1017,4 20 0 0,0
16.10.2018 20:00:00 12,1 10,2 - - 8 4 WSW 1017,4 10 0 0,0
16.10.2018 19:00:00 14,3 11,2 - - 9 5 SW 1017,2 10 0 0,0
16.10.2018 18:00:00 14,5 11,0 - - 15 8 WSW 1016,7 22 0 0,0
16.10.2018 17:00:00 15,8 11,3 - - 18 10 WSW 1016,2 10 18 0,0
16.10.2018 16:00:00 15,7 13,0 - - 13 7 WSW 1016,2 10 0 0,0
16.10.2018 15:00:00 16,1 12,6 - - 15 8 WSW 1016,0 10 0 0,0
16.10.2018 14:00:00 16,6 15,1 - - 16 9 WSW 1015,8 8 0 0,0
16.10.2018 13:00:00 17,0 15,5 - - 13 7 SSW 1015,6 8 0 0,0
16.10.2018 12:00:00 16,5 16,3 - - 8 4 SE 1015,3 9 0 0,0
16.10.2018 11:00:00 15,2 15,2 - - 8 4 SSE 1015,3 5 0 0,0
16.10.2018 10:00:00 14,7 14,6 13,9 14,0 2 1 - 1015,3 3,0 0 0,0
16.10.2018 09:00:00 14,0 13,9 - - 4 2 NNW 1015,3 3,0 0 0,0
16.10.2018 08:00:00 13,2 13,2 - - 5 3 NE 1014,7 1,5 0 0,0
16.10.2018 07:00:00 12,9 12,8 - - 2 1 E 1014,5 0,9 0 0,0
16.10.2018 06:00:00 12,6 12,5 - - 5 3 N 1014,2 0,3 0 0,0
16.10.2018 05:00:00 12,5 12,5 - - 5 3 N 1014,0 0,2 0 0,0
16.10.2018 04:00:00 12,4 12,4 - - 4 2 ENE 1013,9 0,3 0 0,0
16.10.2018 03:00:00 12,6 12,5 - - 5 3 E 1014,1 0,4 0 0,0
16.10.2018 02:00:00 12,7 12,7 - - 9 5 ENE 1014,5 0,4 0 0,0
16.10.2018 01:00:00 12,9 12,9 - - 8 4 ENE 1014,5 0,3 - 0,0
16.10.2018 00:00:00 13,0 12,9 - - 5 3 NE 1014,5 0,8 0 0,0
15.10.2018 23:00:00 13,1 13,0 - - 5 3 NE 1014,2 1,2 0 0,0
15.10.2018 22:00:00 13,0 12,9 - - 9 5 NE 1014,0 0,7 0 0,0
15.10.2018 21:00:00 11,6 11,3 - - 5 3 ENE 1013,6 1,5 0 0,0
15.10.2018 20:00:00 12,3 11,9 - - 9 5 ENE 1013,1 6 0 0,0
15.10.2018 19:00:00 13,3 12,8 - - 4 2 NNE 1012,8 9 0 0,0
15.10.2018 18:00:00 13,8 13,0 - - 11 6 NE 1012,2 13 0 0,0
15.10.2018 17:00:00 13,9 13,1 - - 11 6 NE 1011,5 15 0 0,0
15.10.2018 16:00:00 13,7 12,9 - - 11 6 NNE 1011,0 10 0 0,0
15.10.2018 15:00:00 14,2 13,2 - - 13 7 NE 1010,7 18 0 0,0
15.10.2018 14:00:00 13,3 12,5 - - 15 8 NE 1010,5 10 0 0,0
15.10.2018 13:00:00 12,6 12,1 - - 16 9 NE 1010,4 20 0 0,2
15.10.2018 12:00:00 12,1 11,7 - - 16 9 NNE 1010,1 4,0 0 0,0
15.10.2018 11:00:00 11,8 11,4 - - 15 8 NNE 1009,3 10 0 0,0
15.10.2018 10:00:00 11,2 10,9 14,0 14,0 16 9 NNE 1008,9 9 0 0,0
15.10.2018 09:00:00 10,8 10,5 - - 16 9 N 1008,6 3,5 0 0,2
15.10.2018 08:00:00 10,6 10,2 - - 15 8 N 1008,0 4,5 0 0,0
15.10.2018 07:00:00 10,6 10,2 - - 15 8 NNE 1007,6 10 0 0,0
15.10.2018 06:00:00 10,5 10,0 - - 16 9 NNE 1007,2 18 0 0,0
15.10.2018 05:00:00 10,5 9,7 - - 11 6 N 1007,3 30 0 0,0
15.10.2018 04:00:00 10,3 9,6 - - 16 9 NNE 1006,7 30 0 0,2
15.10.2018 03:00:00 10,0 9,4 - - 22 12 NNE 1005,8 20 0 0,8
15.10.2018 02:00:00 10,1 9,1 - - 21 11 NNE 1007,2 15 0 0,0
15.10.2018 01:00:00 10,1 8,8 - - 16 9 NE 1007,5 28 - 0,0
15.10.2018 00:00:00 9,9 8,6 - - 18 10 NNE 1008,0 35 0 0,0
14.10.2018 23:00:00 9,6 8,3 - - 21 11 NNE 1007,6 21 0 0,0
14.10.2018 22:00:00 9,7 8,3 - - 18 10 NNE 1007,6 10 0 0,0
14.10.2018 21:00:00 9,4 8,6 - - 21 11 NNE 1007,4 15 0 0,0
14.10.2018 20:00:00 9,7 9,0 - - 21 11 N 1007,6 5 0 0,2

tt = Température de l'air
td = dewpoint
tt -20cm = Température de l'air -20cm
tt -100cm = Température de l'air -100cm
ff = Vitesse du vent
dd = Direction du vent
ppp = reduced air pressure
vv = visibility
sd = Ensoleillement
rr = Quantités de précipitations

stations d'obs. à proximité